Olive Branch, MS

2:58 AM CDT on May 27, 2017 (GMT -0500)
Olive Branch

Weather History for KOLV - January, 2012

Change the Weather History Date:

Monday, January 30, 2012

  Actual Average (KMEM) Record (KMEM)
Temperature  
Mean Temperature 48 °F -  
Max Temperature 62 °F 52 °F 77 °F (2002)
Min Temperature 33 °F 33 °F 2 °F (1966)
Degree Days  
Heating Degree Days 18    
Moisture  
Dew Point 29 °F    
Average Humidity 58    
Maximum Humidity 81    
Minimum Humidity 30    
Precipitation  
Precipitation 0.00 in - - ()
Sea Level Pressure  
Sea Level Pressure 30.28 in    
Wind  
Wind Speed 9 mph (South)    
Max Wind Speed 17 mph    
Max Gust Speed 23 mph    
Visibility 10 miles    
Events      
Averages and records for this station are not official NWS values.
T = Trace of Precipitation, MM = Missing Value Source: NWS Daily Summary

Daily Weather History Graph

Daily Weather History Graph

Search for Another Location

Airport or City:

Trip Planner

Search our weather history database for the weather conditions in past years. The results will help you decide how hot, cold, wet, or windy it might be!

Date:

Astronomy

Jan. 30, 2012 Rise Set
Actual Time 6:59 AM CST 5:25 PM CST
Civil Twilight 6:32 AM CST 5:52 PM CST
Nautical Twilight 6:02 AM CST 6:22 PM CST
Astronomical Twilight 5:32 AM CST 6:52 PM CST
Moon 10:42 AM CST (1/30) No Moon Set
Length of Visible Light 11h 19m
Length of Day
10h 25m
Waxing Crescent, 46% of the Moon is Illuminated
Jan 30
Waxing Crescent
Jan 30
First Quarter
Feb 7
Full
Feb 14
Last Quarter
Feb 21
New

Hourly Weather History & Observations

Time (CST) Temp. Windchill Dew Point Humidity Pressure Visibility Wind Dir Wind Speed Gust Speed Precip Events Conditions
12:15 AM 35.6 °F 29.2 °F 30.2 °F 81% 30.33 in 10.0 mi South 8.1 mph - 0.00 in   Clear
12:35 AM 35.6 °F 29.2 °F 30.2 °F 81% 30.32 in 10.0 mi South 8.1 mph - 0.00 in   Clear
12:55 AM 35.6 °F 29.9 °F 28.4 °F 75% 30.32 in 10.0 mi South 6.9 mph - 0.00 in   Clear
1:15 AM 35.6 °F 29.9 °F 28.4 °F 75% 30.32 in 10.0 mi South 6.9 mph - 0.00 in   Clear
1:35 AM 35.6 °F 28.6 °F 28.4 °F 75% 30.32 in 10.0 mi South 9.2 mph - 0.00 in   Clear
1:55 AM 33.8 °F 27.0 °F 28.4 °F 81% 30.32 in 10.0 mi South 8.1 mph - 0.00 in   Clear
2:15 AM 35.6 °F 29.2 °F 28.4 °F 75% 30.31 in 10.0 mi South 8.1 mph - 0.00 in   Clear
2:35 AM 35.6 °F 28.6 °F 28.4 °F 75% 30.31 in 10.0 mi South 9.2 mph - 0.00 in   Clear
2:55 AM 33.8 °F 26.4 °F 28.4 °F 81% 30.32 in 10.0 mi South 9.2 mph - 0.00 in   Clear
3:15 AM 33.8 °F 27.0 °F 26.6 °F 75% 30.32 in 10.0 mi South 8.1 mph - N/A   Clear
3:35 AM 33.8 °F 27.0 °F 26.6 °F 75% 30.31 in 10.0 mi South 8.1 mph - 0.00 in   Clear
3:55 AM 33.8 °F 26.4 °F 24.8 °F 70% 30.31 in 10.0 mi South 9.2 mph - 0.00 in   Clear
4:15 AM 33.8 °F 27.0 °F 26.6 °F 75% 30.31 in 10.0 mi South 8.1 mph - 0.00 in   Clear
4:35 AM 33.8 °F 26.4 °F 26.6 °F 75% 30.31 in 10.0 mi South 9.2 mph - 0.00 in   Clear
4:55 AM 33.8 °F 25.8 °F 26.6 °F 75% 30.31 in 10.0 mi South 10.4 mph - 0.00 in   Clear
5:15 AM 33.8 °F 25.8 °F 26.6 °F 75% 30.31 in 10.0 mi South 10.4 mph - 0.00 in   Clear
5:35 AM 33.8 °F 25.8 °F 26.6 °F 75% 30.32 in 10.0 mi South 10.4 mph - 0.00 in   Clear
6:50 AM 33.8 °F 29.6 °F 24.8 °F 70% 30.33 in 10.0 mi South 4.6 mph - N/A   Clear
7:50 AM 37.4 °F 31.4 °F 26.6 °F 65% 30.33 in 10.0 mi South 8.1 mph - N/A   Scattered Clouds
8:50 AM 44.6 °F 39.7 °F 26.6 °F 49% 30.34 in 10.0 mi South 9.2 mph - N/A   Scattered Clouds
9:50 AM 50.0 °F - 24.8 °F 37% 30.35 in 10.0 mi SSW 9.2 mph 20.7 mph N/A   Mostly Cloudy
10:50 AM 55.4 °F - 28.4 °F 36% 30.35 in 10.0 mi SW 11.5 mph 19.6 mph N/A   Mostly Cloudy
11:50 AM 60.8 °F - 30.2 °F 31% 30.32 in 10.0 mi SW 9.2 mph 17.3 mph N/A   Scattered Clouds
12:50 PM 60.8 °F - 32.0 °F 34% 30.29 in 10.0 mi SSW 11.5 mph 20.7 mph N/A   Scattered Clouds
1:50 PM 62.6 °F - 30.2 °F 30% 30.26 in 10.0 mi SSW 11.5 mph 23.0 mph N/A   Partly Cloudy
2:45 PM 62.6 °F - 30.2 °F 30% 30.24 in 10.0 mi South 17.3 mph 21.9 mph N/A   Partly Cloudy
3:50 PM 60.8 °F - 30.2 °F 31% 30.23 in 10.0 mi South 16.1 mph 23.0 mph N/A   Clear
4:50 PM 57.2 °F - 32.0 °F 38% 30.22 in 10.0 mi South 15.0 mph 19.6 mph N/A   Clear
5:45 PM 53.6 °F - 32.0 °F 44% 30.22 in 10.0 mi South 9.2 mph - N/A   Clear
6:45 PM 51.8 °F - 32.0 °F 47% 30.23 in 10.0 mi South 5.8 mph - N/A   Clear
7:50 PM 48.2 °F - 32.0 °F 54% 30.23 in 10.0 mi South 6.9 mph - N/A   Clear
7:55 PM 48.2 °F - 32.0 °F 54% 30.23 in 10.0 mi South 8.1 mph - 0.00 in   Clear
8:15 PM 46.4 °F 42.4 °F 32.0 °F 57% 30.23 in 10.0 mi South 8.1 mph - 0.00 in   Clear
8:35 PM 44.6 °F 40.2 °F 32.0 °F 61% 30.23 in 10.0 mi South 8.1 mph - 0.00 in   Clear
8:55 PM 46.4 °F 41.5 °F 32.0 °F 57% 30.22 in 10.0 mi South 10.4 mph - N/A   Clear
9:15 PM 48.2 °F - 30.2 °F 50% 30.22 in 10.0 mi South 12.7 mph - 0.00 in   Clear
9:35 PM 50.0 °F - 30.2 °F 47% 30.22 in 10.0 mi South 11.5 mph - 0.00 in   Clear
9:55 PM 48.2 °F - 30.2 °F 50% 30.23 in 10.0 mi South 11.5 mph - 0.00 in   Clear
10:15 PM 48.2 °F - 30.2 °F 50% 30.23 in 10.0 mi South 11.5 mph - 0.00 in   Clear
10:35 PM 48.2 °F - 30.2 °F 50% 30.23 in 10.0 mi South 11.5 mph - 0.00 in   Clear
10:55 PM 48.2 °F - 30.2 °F 50% 30.23 in 10.0 mi South 10.4 mph - 0.00 in   Clear
11:15 PM 48.2 °F - 30.2 °F 50% 30.23 in 10.0 mi South 10.4 mph - 0.00 in   Clear
11:35 PM 50.0 °F - 30.2 °F 47% 30.23 in 10.0 mi South 13.8 mph - 0.00 in   Clear
11:55 PM 50.0 °F - 30.2 °F 47% 30.23 in 9.0 mi South 12.7 mph - 0.00 in   Clear